Year,Month,Day,Hour,Minute,Value (Times are PST for temperature in C)
2020,04,11,07,46,27.30
2020,04,11,07,47,27.30
2020,04,11,07,48,27.30
2020,04,11,07,49,27.30
2020,04,11,07,50,27.30
2020,04,11,07,51,27.30
2020,04,11,07,52,27.30
2020,04,11,07,53,27.30
2020,04,11,07,54,27.30
2020,04,11,07,55,27.30
2020,04,11,07,56,27.30
2020,04,11,07,57,27.30
2020,04,11,10,46,33.90
2020,04,11,10,47,33.90
2020,04,11,10,48,33.90
2020,04,11,10,49,33.90
2020,04,11,10,50,33.90
2020,04,11,10,51,33.90
2020,04,11,10,52,33.90
2020,04,11,10,53,33.90
2020,04,11,10,54,33.90
2020,04,11,10,55,33.90
2020,04,11,10,56,33.90
2020,04,11,10,57,34.20
2020,04,11,10,58,34.40
2020,04,11,10,59,34.40
2020,04,11,11,00,34.40
2020,04,11,11,01,34.40
2020,04,11,11,02,34.40
2020,04,11,11,03,34.40
2020,04,11,11,04,34.40
2020,04,11,11,05,34.40
2020,04,11,11,06,35.10
2020,04,11,11,07,35.10
2020,04,11,11,08,35.10
2020,04,11,11,09,35.10
2020,04,11,11,10,35.10
2020,04,11,11,11,35.10
2020,04,11,11,12,35.10
2020,04,11,11,13,35.10
2020,04,11,11,14,35.50
2020,04,11,11,15,35.80
2020,04,11,11,16,35.80
2020,04,11,11,17,35.70
2020,04,11,11,18,35.70
2020,04,11,11,19,35.70
2020,04,11,11,20,35.70
2020,04,11,11,21,35.70
2020,04,11,11,22,35.70
2020,04,11,11,23,35.70
2020,04,11,11,24,35.70
2020,04,11,11,25,35.70
2020,04,11,11,26,35.70
2020,04,11,11,27,35.70
2020,04,11,11,28,35.70
2020,04,11,13,43,41.80
2020,04,11,13,44,41.80
2020,04,11,13,45,41.80
2020,04,11,13,46,41.80
2020,04,11,13,47,41.80
2020,04,11,13,48,41.80
2020,04,11,13,49,41.80
2020,04,11,13,50,41.80
2020,04,11,13,51,41.80
2020,04,11,13,52,41.80
2020,04,11,13,53,41.80
2020,04,11,13,54,41.90
2020,04,11,13,55,41.90
2020,04,11,13,56,42.00
2020,04,11,13,57,42.00
2020,04,11,13,58,42.10
2020,04,11,13,59,42.20
2020,04,11,14,00,42.40
2020,04,11,14,01,42.40
2020,04,11,14,02,42.50
2020,04,11,14,03,42.40
2020,04,11,14,04,42.40
2020,04,11,14,05,42.50
2020,04,11,14,06,42.50
2020,04,11,14,07,42.50
2020,04,11,14,08,42.50
2020,04,11,14,09,42.50
2020,04,11,14,10,42.40
2020,04,11,14,11,42.40
2020,04,11,14,12,42.30
2020,04,11,14,13,42.30
2020,04,11,14,14,42.30
2020,04,11,14,15,42.30
2020,04,11,14,16,42.50
2020,04,11,14,17,42.60
2020,04,11,14,18,42.70
2020,04,11,14,19,42.80
2020,04,11,14,20,42.80
2020,04,11,14,21,42.80
2020,04,11,14,22,42.90
2020,04,11,14,23,42.90
2020,04,11,14,24,42.90
2020,04,11,14,25,42.90
2020,04,11,14,26,42.80
2020,04,11,14,27,42.70
2020,04,11,14,28,42.60
2020,04,11,14,29,42.60
2020,04,11,14,30,42.70
2020,04,11,14,31,42.70
2020,04,11,14,32,42.80
2020,04,11,14,33,42.90
2020,04,11,14,34,42.90
2020,04,11,14,35,43.00
2020,04,11,14,36,43.00
2020,04,11,14,37,43.20
2020,04,11,14,38,43.30
2020,04,11,14,39,43.40
2020,04,11,14,40,43.50
2020,04,11,14,41,43.50
2020,04,11,14,42,43.60
2020,04,11,14,43,43.60
2020,04,11,14,44,43.70
2020,04,11,14,45,43.70
2020,04,11,14,46,43.60
2020,04,11,14,47,43.50
2020,04,11,14,48,43.50
2020,04,11,14,49,43.40
2020,04,11,14,50,43.40
2020,04,11,14,51,43.40
2020,04,11,14,52,43.40
2020,04,11,14,53,43.30
2020,04,11,14,54,43.30
2020,04,11,14,55,43.30
2020,04,11,14,56,43.20
2020,04,11,14,57,43.20
2020,04,11,14,58,43.20
2020,04,11,14,59,43.20
2020,04,11,15,00,43.20
2020,04,11,15,01,43.30
2020,04,11,15,02,43.30
2020,04,11,15,03,43.30
2020,04,11,15,04,43.40
2020,04,11,15,05,43.40
2020,04,11,15,06,43.40
2020,04,11,15,07,43.50
2020,04,11,15,08,43.60
2020,04,11,15,09,43.60
2020,04,11,15,10,43.70
2020,04,11,15,11,43.80
2020,04,11,15,12,43.80
2020,04,11,15,13,43.80
2020,04,11,15,14,43.80
2020,04,11,15,15,43.90
2020,04,11,15,16,44.00
2020,04,11,15,17,44.10
2020,04,11,15,18,44.20
2020,04,11,15,19,44.30
2020,04,11,15,20,44.30
2020,04,11,15,21,44.20
2020,04,11,15,22,44.10
2020,04,11,15,23,44.10
2020,04,11,15,24,44.00
2020,04,11,15,25,44.00
2020,04,11,15,26,44.10
2020,04,11,15,27,44.10
2020,04,11,15,28,44.10
2020,04,11,15,29,44.20
2020,04,11,15,30,44.10
2020,04,11,15,31,44.10
2020,04,11,15,32,44.10
2020,04,11,15,33,44.10
2020,04,11,15,34,44.10
2020,04,11,15,35,44.00
2020,04,11,15,36,44.00
2020,04,11,15,37,43.90
2020,04,11,15,38,44.00
2020,04,11,15,39,44.10
2020,04,11,15,40,44.20
2020,04,11,15,41,44.30
2020,04,11,15,42,44.40
2020,04,11,15,43,44.50
2020,04,11,15,44,44.40
2020,04,11,15,45,44.40
2020,04,11,15,46,44.40
2020,04,11,15,47,44.50
2020,04,11,15,48,44.50
2020,04,11,15,49,44.60
2020,04,11,15,50,44.60
2020,04,11,15,51,44.50
2020,04,11,15,52,44.40
2020,04,11,15,53,44.30
2020,04,11,15,54,44.30
2020,04,11,15,55,44.30
2020,04,11,15,56,44.30
2020,04,11,15,57,44.30
2020,04,11,15,58,44.30
2020,04,11,15,59,44.20
2020,04,11,16,00,44.20
2020,04,11,16,01,44.20
2020,04,11,16,02,44.30
2020,04,11,16,03,44.30
2020,04,11,16,04,44.40
2020,04,11,16,05,44.50
2020,04,11,16,06,44.60
2020,04,11,16,07,44.60
2020,04,11,16,08,44.70
2020,04,11,16,09,44.70
2020,04,11,16,10,44.70
2020,04,11,16,11,44.60
2020,04,11,16,12,44.60
2020,04,11,16,13,44.50
2020,04,11,16,14,44.40
2020,04,11,16,15,44.40
2020,04,11,16,16,44.30
2020,04,11,16,17,44.30
2020,04,11,16,18,44.40
2020,04,11,16,19,44.30
2020,04,11,16,20,44.30
2020,04,11,16,21,44.30
2020,04,11,16,22,44.40
2020,04,11,16,23,44.40
2020,04,11,16,24,44.40
2020,04,11,16,25,44.30
2020,04,11,16,26,44.30
2020,04,11,16,27,44.30
2020,04,11,16,28,44.30
2020,04,11,16,29,44.40
2020,04,11,16,30,44.40
2020,04,11,16,31,44.40
2020,04,11,16,32,44.40
2020,04,11,16,33,44.40
2020,04,11,16,34,44.30
2020,04,11,16,35,44.30
2020,04,11,16,36,44.30
2020,04,11,16,37,44.30
2020,04,11,16,38,44.40
2020,04,11,16,39,44.40
2020,04,11,16,40,44.40
2020,04,11,16,41,44.30
2020,04,11,16,42,44.30
2020,04,11,16,43,44.20
2020,04,11,16,44,44.20
2020,04,11,16,45,44.20
2020,04,11,16,46,44.30
2020,04,11,16,47,44.30
2020,04,11,16,48,44.40
2020,04,11,16,49,44.40
2020,04,11,16,50,44.30
2020,04,11,16,51,44.30
2020,04,11,16,52,44.30
2020,04,11,16,53,44.20
2020,04,11,16,54,44.00
2020,04,11,16,55,43.90
2020,04,11,16,56,43.70
2020,04,11,16,57,43.60
2020,04,11,16,58,43.50
2020,04,11,16,59,43.40
2020,04,11,17,00,43.30
2020,04,11,17,01,43.20
2020,04,11,17,02,43.20
2020,04,11,17,03,43.20
2020,04,11,17,04,43.20
2020,04,11,17,05,43.10
2020,04,11,17,06,43.00
2020,04,11,17,07,42.90
2020,04,11,17,08,42.80
2020,04,11,17,09,42.70
2020,04,11,17,10,42.70
2020,04,11,17,11,42.60
2020,04,11,17,12,42.50
2020,04,11,17,13,42.40
2020,04,11,17,14,42.30
2020,04,11,17,15,42.20
2020,04,11,17,16,42.20
2020,04,11,17,17,42.20
2020,04,11,17,18,42.10
2020,04,11,17,19,42.10
2020,04,11,17,20,42.10
2020,04,11,17,21,42.10
2020,04,11,17,22,42.10
2020,04,11,17,23,42.10
2020,04,11,17,24,42.00
2020,04,11,17,25,42.00
2020,04,11,17,26,41.90
2020,04,11,17,27,41.80
2020,04,11,17,28,41.70
2020,04,11,17,29,41.70
2020,04,11,17,30,41.60
2020,04,11,17,31,41.60
2020,04,11,17,32,41.60
2020,04,11,17,33,41.60
2020,04,11,17,34,41.60
2020,04,11,17,35,41.70
2020,04,11,17,36,41.60
2020,04,11,17,37,41.60
2020,04,11,17,38,41.60
2020,04,11,17,39,41.60
2020,04,11,17,40,41.60
2020,04,11,17,41,41.50
2020,04,11,17,42,41.50
2020,04,11,17,43,41.50
2020,04,11,17,44,41.50
2020,04,11,17,45,41.50
2020,04,11,17,46,41.50
2020,04,11,17,47,41.50
2020,04,11,17,48,41.50
2020,04,11,17,49,41.40
2020,04,11,17,50,41.40
2020,04,11,17,51,41.40
2020,04,11,17,52,41.40
2020,04,11,17,53,41.40
2020,04,11,17,54,41.40
2020,04,11,17,55,41.30
2020,04,11,17,56,41.30
2020,04,11,17,57,41.30
2020,04,11,17,58,41.20
2020,04,11,17,59,41.20
2020,04,11,18,00,41.20
2020,04,11,18,01,41.10
2020,04,11,18,02,41.10
2020,04,11,18,03,41.00
2020,04,11,18,04,41.00
2020,04,11,18,05,40.90
2020,04,11,18,06,40.90
2020,04,11,18,07,40.80
2020,04,11,18,08,40.80
2020,04,11,18,09,40.80
2020,04,11,18,10,40.80
2020,04,11,18,11,40.80
2020,04,11,18,12,40.80
2020,04,11,18,13,40.70
2020,04,11,18,14,40.70
2020,04,11,18,15,40.60
2020,04,11,18,16,40.60
2020,04,11,18,17,40.50
2020,04,11,18,18,40.50
2020,04,11,18,19,40.50
2020,04,11,18,20,40.40
2020,04,11,18,21,40.30
2020,04,11,18,22,40.10
2020,04,11,18,23,39.90
2020,04,11,18,24,39.70
2020,04,11,18,25,39.50
2020,04,11,18,26,39.30
2020,04,11,18,27,39.20
2020,04,11,18,28,39.00
2020,04,11,18,29,38.90
2020,04,11,18,30,38.80
2020,04,11,18,31,38.80
2020,04,11,18,32,38.70
2020,04,11,18,33,38.70
2020,04,11,18,34,38.60
2020,04,11,18,35,38.60
2020,04,11,18,36,38.50
2020,04,11,18,37,38.50
2020,04,11,18,38,38.40
2020,04,11,18,39,38.40
2020,04,11,18,40,38.30
2020,04,11,18,41,38.30
2020,04,11,18,42,38.20
2020,04,11,18,43,38.00
2020,04,11,18,44,38.00
2020,04,11,18,45,38.00
2020,04,11,18,46,38.00
2020,04,11,18,47,38.00
2020,04,11,18,48,38.00
2020,04,11,18,49,38.00
2020,04,11,18,50,38.00
2020,04,11,18,51,38.00
2020,04,11,18,52,38.00
2020,04,11,18,53,38.00
